Location: Herksen
(52.4316°N, 6.1319°E)
Time: 20:47:24
(UTC+00:00)

COSMOS 2428 - Pass Details

Date: 15 May 2026
Orbit: 844 x 855 km, 70.9° (Epoch: 6 June)

Event Time Altitude Azimuth Distance (km) Brightness Sun altitude
Rises 21:04:36 0° 329° (NNW) 3,428 8.0 -11.7°
Reaches altitude 10° 21:07:16 10° 338° (NNW) 2,488 6.6 -11.9°
Maximum altitude 21:12:32 36° 45° (NE) 1,313 3.8 -12.4°
Enters shadow 21:17:36 11° 111° (ESE) 2,420 4.6 -12.8°
